Location: Ash Shall?l al Awwal
(24.0167°N, 32.8667°E)
Time: 12:17:12
(UTC+00:00)

Okean 1 - Pass Details

Date: 02 March 2021
Orbit: 538 x 554 km, 82.5° (Epoch: 16 April)

Event Time Altitude Azimuth Distance (km) Brightness Sun altitude
Rises 16:29:50 0° 7° (N) 2,722 6.8 -9.5°
Reaches altitude 10° 16:32:10 10° 18° (NNE) 1,828 5.8 -10.0°
Maximum altitude 16:35:48 32° 82° (E) 958 4.0 -10.8°
Drops below altitude 10° 16:39:25 10° 146° (SSE) 1,825 5.7 -11.7°
Sets 16:41:44 0° 157° (SSE) 2,717 6.6 -12.2°
